Location: Phoenix
(33.4480°N, 112.0730°W)
Time: 10:52:56
(UTC-07:00)

Cosmos 1470 Rocket - Visible Passes

Search period start: 23 April 2017 00:00
Search period end: 03 May 2017 00:00
Orbit: 603 x 635 km, 82.5° (Epoch: 21 April)

Date Brightness Start Highest point End Pass type
(mag) Time Alt. Az. Time Alt. Az. Time Alt. Az.
23 Apr 4.3 19:31:53 10° NNW 19:36:07 56° W 19:40:19 10° S visible
24 Apr 5.8 19:49:41 10° NNW 19:53:20 27° W 19:56:59 10° SSW visible
25 Apr 6.6 20:08:17 10° NW 20:10:29 14° W 20:12:41 10° WSW visible
29 Apr 6.8 19:40:04 10° WNW 19:42:04 13° W 19:44:03 10° WSW visible
